Location: Calvatone
(45.1167°N, 10.4333°E)
Time: 12:20:03
(UTC+00:00)

CSL-04 Rocket - Pass Details

Date: 28 January 2023
Orbit: 806 x 859 km, 98.8° (Epoch: 25 March)

Event Time Altitude Azimuth Distance (km) Brightness Sun altitude
Exits shadow 18:50:15 41° 10° (N) 1,176 4.3 -26.6°
Drops below altitude 10° 18:53:48 10° 352° (N) 2,428 6.2 -27.2°
Sets 18:56:11 0° 349° (N) 3,373 7.0 -27.6°
